When you browse on this site, cookies collect data to enhance your experience and personalize the content and advertising you see.
Visit our Privacy Policy to learn more. By continuing to use the site, you agree to this use of cookies and data.
  • In Hungary
  • List of Countries
  • For 7 days
  • Water Temperature
  • Weather Map
  • News
  • Weather Widgets
  • user-avatar
    Login

    Hourly Weather Bornholm

    Today, 19 November, Tuesday

    Time Temperature Precipitation Wind Pressure Humidity
    00:00 +3°C° 0 mm 9 mps 748 mmHg 74%
    01:00 +2°C° 0 mm 10 mps 749 mmHg 72%
    02:00 +2°C° 0 mm 10 mps 749 mmHg 73%
    03:00 +2°C° 0 mm 10 mps 749 mmHg 73%
    04:00 +1°C° 0 mm 10 mps 748 mmHg 74%
    05:00 +2°C° 0 mm 11 mps 748 mmHg 74%
    06:00 +2°C° 0 mm 11 mps 748 mmHg 74%
    07:00 +2°C° 0 mm 12 mps 748 mmHg 73%
    08:00 +2°C° 0.1 mm 12 mps 748 mmHg 73%
    09:00 +3°C° 0.1 mm 13 mps 749 mmHg 73%
    10:00 +4°C° 0.1 mm 13 mps 749 mmHg 73%
    11:00 +4°C° 0 mm 12 mps 749 mmHg 72%
    12:00 +6°C° 0 mm 11 mps 750 mmHg 71%
    13:00 +6°C° 0 mm 11 mps 751 mmHg 70%
    14:00 +6°C° 0 mm 10 mps 751 mmHg 73%
    15:00 +5°C° 0 mm 9 mps 751 mmHg 75%
    16:00 +5°C° 0 mm 8 mps 752 mmHg 78%
    17:00 +4°C° 0 mm 7 mps 752 mmHg 79%
    18:00 +4°C° 0 mm 7 mps 753 mmHg 81%
    19:00 +4°C° 0 mm 6 mps 754 mmHg 82%
    20:00 +3°C° 0 mm 6 mps 754 mmHg 83%
    21:00 +3°C° 0 mm 5 mps 754 mmHg 84%
    22:00 +4°C° 0 mm 4 mps 755 mmHg 85%
    23:00 +4°C° 0 mm 4 mps 755 mmHg 85%

    Tomorrow, 20 November, Wednesday

    Time Temperature Precipitation Wind Pressure Humidity
    00:00 +4°C° 0 mm 3 mps 755 mmHg 85%
    01:00 +4°C° 0 mm 2 mps 756 mmHg 86%
    02:00 +5°C° 0 mm 2 mps 755 mmHg 85%
    03:00 +6°C° 0 mm 1 mps 755 mmHg 84%
    04:00 +5°C° 0 mm 0 mps 755 mmHg 83%
    05:00 +6°C° 0 mm 1 mps 755 mmHg 82%
    06:00 +5°C° 0 mm 2 mps 756 mmHg 81%
    07:00 +4°C° 0 mm 3 mps 756 mmHg 80%
    08:00 +5°C° 0 mm 4 mps 756 mmHg 80%
    09:00 +5°C° 0 mm 4 mps 756 mmHg 80%
    10:00 +5°C° 0 mm 5 mps 756 mmHg 79%
    11:00 +5°C° 0 mm 5 mps 755 mmHg 79%
    12:00 +6°C° 0 mm 4 mps 755 mmHg 78%
    13:00 +6°C° 0 mm 4 mps 755 mmHg 78%
    14:00 +6°C° 0 mm 4 mps 755 mmHg 79%
    15:00 +6°C° 0 mm 4 mps 754 mmHg 81%
    16:00 +6°C° 0 mm 4 mps 754 mmHg 82%
    17:00 +5°C° 0 mm 4 mps 754 mmHg 83%
    18:00 +5°C° 0 mm 5 mps 754 mmHg 84%
    19:00 +5°C° 0 mm 5 mps 754 mmHg 84%
    20:00 +5°C° 0 mm 5 mps 754 mmHg 87%
    21:00 +5°C° 0 mm 5 mps 754 mmHg 90%
    22:00 +4°C° 0 mm 6 mps 754 mmHg 93%
    23:00 +6°C° 0 mm 5 mps 754 mmHg 93%

    Day after tomorrow, 21 November, Thursday

    Time Temperature Precipitation Wind Pressure Humidity
    00:00 +6°C° 0 mm 4 mps 754 mmHg 92%
    01:00 +6°C° 0 mm 4 mps 754 mmHg 92%
    02:00 +7°C° 0 mm 4 mps 754 mmHg 93%
    03:00 +7°C° 0 mm 5 mps 753 mmHg 94%
    04:00 +7°C° 0 mm 5 mps 753 mmHg 95%
    05:00 +7°C° 0 mm 5 mps 753 mmHg 94%
    06:00 +7°C° 0 mm 6 mps 753 mmHg 93%
    07:00 +8°C° 0 mm 6 mps 753 mmHg 92%
    08:00 +8°C° 0 mm 6 mps 752 mmHg 89%
    09:00 +8°C° 0 mm 6 mps 752 mmHg 86%
    10:00 +8°C° 0 mm 6 mps 752 mmHg 84%
    11:00 +9°C° 0 mm 6 mps 752 mmHg 82%
    12:00 +9°C° 0 mm 6 mps 752 mmHg 81%
    13:00 +9°C° 0 mm 5 mps 752 mmHg 80%
    14:00 +9°C° 0 mm 5 mps 751 mmHg 80%
    15:00 +8°C° 0 mm 5 mps 751 mmHg 80%
    16:00 +8°C° 0 mm 6 mps 751 mmHg 81%
    17:00 +8°C° 0 mm 6 mps 751 mmHg 81%
    18:00 +8°C° 0 mm 6 mps 751 mmHg 81%
    19:00 +8°C° 0 mm 6 mps 751 mmHg 82%
    20:00 +8°C° 0 mm 6 mps 751 mmHg 84%
    21:00 +8°C° 0 mm 6 mps 750 mmHg 86%
    22:00 +8°C° 0 mm 6 mps 750 mmHg 88%
    23:00 +8°C° 0.2 mm 6 mps 750 mmHg 89%

    22 November, Friday

    Time Temperature Precipitation Wind Pressure Humidity
    00:00 +8°C° 0.2 mm 5 mps 750 mmHg 90%
    01:00 +8°C° 0.2 mm 5 mps 750 mmHg 91%
    02:00 +8°C° 0.3 mm 5 mps 750 mmHg 91%
    03:00 +8°C° 0.3 mm 5 mps 749 mmHg 91%
    04:00 +8°C° 0.3 mm 5 mps 749 mmHg 91%
    05:00 +8°C° 0.1 mm 5 mps 749 mmHg 91%
    06:00 +8°C° 0.1 mm 4 mps 749 mmHg 92%
    07:00 +7°C° 0.1 mm 4 mps 749 mmHg 92%
    08:00 +7°C° 0.1 mm 4 mps 750 mmHg 91%
    09:00 +7°C° 0.1 mm 4 mps 750 mmHg 91%
    10:00 +8°C° 0.1 mm 4 mps 750 mmHg 90%
    11:00 +8°C° 0 mm 4 mps 750 mmHg 89%
    12:00 +9°C° 0 mm 3 mps 750 mmHg 88%
    13:00 +9°C° 0 mm 3 mps 750 mmHg 87%
    14:00 +9°C° 0 mm 3 mps 750 mmHg 88%
    15:00 +9°C° 0 mm 3 mps 750 mmHg 89%
    16:00 +8°C° 0 mm 3 mps 750 mmHg 90%
    17:00 +7°C° 0 mm 4 mps 751 mmHg 90%
    18:00 +7°C° 0 mm 4 mps 751 mmHg 90%
    19:00 +7°C° 0 mm 4 mps 751 mmHg 90%
    20:00 +7°C° 0 mm 3 mps 751 mmHg 90%
    21:00 +7°C° 0 mm 3 mps 751 mmHg 91%
    22:00 +7°C° 0 mm 3 mps 751 mmHg 92%
    23:00 +5°C° 0 mm 3 mps 751 mmHg 92%

    23 November, Saturday

    Time Temperature Precipitation Wind Pressure Humidity
    00:00 +5°C° 0 mm 3 mps 751 mmHg 91%
    01:00 +5°C° 0 mm 3 mps 751 mmHg 91%
    02:00 +5°C° 0 mm 4 mps 750 mmHg 91%
    03:00 +5°C° 0 mm 4 mps 750 mmHg 91%
    04:00 +5°C° 0 mm 5 mps 750 mmHg 91%
    05:00 +4°C° 0 mm 6 mps 750 mmHg 91%
    06:00 +4°C° 0 mm 6 mps 750 mmHg 91%
    07:00 +4°C° 0 mm 7 mps 750 mmHg 91%
    08:00 +4°C° 0 mm 7 mps 750 mmHg 87%
    09:00 +5°C° 0 mm 7 mps 750 mmHg 83%
    10:00 +5°C° 0 mm 7 mps 750 mmHg 79%
    11:00 +5°C° 0 mm 7 mps 749 mmHg 77%
    12:00 +6°C° 0 mm 7 mps 749 mmHg 75%
    13:00 +6°C° 0 mm 7 mps 749 mmHg 73%
    14:00 +6°C° 0 mm 7 mps 749 mmHg 74%
    15:00 +5°C° 0 mm 7 mps 749 mmHg 75%
    16:00 +5°C° 0 mm 8 mps 749 mmHg 76%
    17:00 +4°C° 0 mm 8 mps 749 mmHg 76%
    18:00 +4°C° 0 mm 8 mps 749 mmHg 76%
    19:00 +4°C° 0 mm 8 mps 749 mmHg 76%
    20:00 +4°C° 0 mm 8 mps 749 mmHg 76%
    21:00 +3°C° 0 mm 7 mps 749 mmHg 76%
    22:00 +3°C° 0 mm 7 mps 750 mmHg 76%
    23:00 +3°C° 0 mm 7 mps 750 mmHg 78%

    24 November, Sunday

    Time Temperature Precipitation Wind Pressure Humidity
    00:00 +3°C° 0 mm 7 mps 750 mmHg 80%
    01:00 +3°C° 0 mm 6 mps 750 mmHg 81%
    02:00 +2°C° 0 mm 6 mps 750 mmHg 82%
    03:00 +2°C° 0 mm 6 mps 750 mmHg 84%
    04:00 +2°C° 0 mm 6 mps 750 mmHg 85%
    05:00 +2°C° 0 mm 6 mps 750 mmHg 85%
    06:00 +2°C° 0 mm 6 mps 750 mmHg 86%
    07:00 +2°C° 0 mm 6 mps 751 mmHg 86%
    08:00 +2°C° 0 mm 5 mps 751 mmHg 84%
    09:00 +3°C° 0 mm 5 mps 751 mmHg 82%
    10:00 +3°C° 0 mm 5 mps 751 mmHg 81%
    11:00 +5°C° 0 mm 4 mps 751 mmHg 79%
    12:00 +6°C° 0 mm 4 mps 751 mmHg 77%
    13:00 +6°C° 0 mm 4 mps 751 mmHg 75%
    14:00 +6°C° 0 mm 4 mps 751 mmHg 79%
    15:00 +5°C° 0 mm 4 mps 752 mmHg 82%
    16:00 +5°C° 0 mm 3 mps 752 mmHg 85%
    17:00 +4°C° 0 mm 3 mps 752 mmHg 87%
    18:00 +4°C° 0 mm 4 mps 752 mmHg 89%
    19:00 +4°C° 0 mm 4 mps 752 mmHg 90%
    20:00 +4°C° 0 mm 3 mps 752 mmHg 91%
    21:00 +4°C° 0 mm 3 mps 753 mmHg 92%
    22:00 +4°C° 0 mm 3 mps 753 mmHg 93%
    23:00 +4°C° 0 mm 4 mps 753 mmHg 93%
    Show more